STARLINK-4722, 53775

Orbit data source: Space-Track

STARLINK-4722, 53775 is a payload satellite owned by SpaceX/Seattle (US) in LEO that was launched on Sun, 11 Sep 2022 UTC via an FALCON 9 launch vehicle from the Air Force Eastern Test Range (AFETR). Payload-class satellites include a variety of spacecraft equipped with specific instruments for various scientific and technological missions. These include communications satellites like Starlink; space stations such as the ISS; scientific satellites like the Hubble; Earth observation satellites from companies like Planet Labs, Umbra, and HawkEye 360; GPS; miniature CubeSats for education and research; and military/defense satellites.

Loading next visibility...
Identifier
53775, 2022-111C
Orbit
LEO
Country
Flag of USUS
Related business
Manufacturer
SpaceX/Seattle
Mission
Operational Commercial Communications
Bus & Motor
STARLINK, Unknown motor
Mass
305 kg wet, ~290 kg dry
Launch date (UTC)
2022-09-11 (4 years ago)
Launch vehicle
FALCON 9
Launch site
Air Force Eastern Test Range (AFETR)
Object type
Payload
Rocket body
Debris
Shape & HBR
Box + 1 Pan, 10.1 m
Radar Cross Section
13.562 m², Large (>1 m²)

Expand to show TLE details & history
Last TLE update: 7 hours ago

TLE from 7 hours ago
0 STARLINK-4722
1 53775U 22111C   26255.94600255 -.00000466  00000-0 -32516-5 0  9995
2 53775  53.1604 141.8084 0001435 102.0768 258.0394 15.31697191222124
Epoch: 2026-09-12T22:42Z
TLE epoch observation values (Epoch: 2026-09-12T22:42:14.620Z)
Latitude
-0.00004°
Longitude
169.29974°
Altitude
471.853 km
Speed
7.631 km/s
True Right ascension
09h 27m 14s
True Declination
0° 00' 00"
Sunlit
Object was in daylight at epoch
Visualization orbit readout
Latitude
Unknown
Longitude
Unknown
Altitude
Unknown
Speed
Unknown
Apparent Right ascension
Unknown
Apparent Declination
Unknown
Sunlit
N/A
Visualization observer readout
Local Sidereal Time
22:21:04
Azimuth
Unknown
Elevation
Unknown
Doppler factor
Unknown
Orbital elements
Apogee altitude
471.988 km
Perigee altitude
470.022 km
Semi-major axis
6,849.142 km
Eccentricity
0.00014
Inclination
53.1604°
RAAN
141.8084°
Arg. of periapsis
102.0768°
True anomaly
258.02331°
Mean anomaly
258.0394°
Eccentric anomaly
258.03136°
Mean motion
3.82903 °/min
Orbital period
94.02 mins
BSTAR
-0.0000032516
Loading maneuver chart data...
Computing Atmospheric mass density...
Loading historical data...
Loading historical data...
Loading historical data...
Loading historical data...
Loading historical data...
Loading historical data...
Loading historical data...

Documentation

Showing up to 5 results
|